Regional Weather Roundup
Issued by NWS

Home | Current Version | Previous Version | Text Only | Print | Product List | Glossary Off
Versions: 1 2 3 4 5 6 7 8 9 10 11 12 13 14 15 16 17 18 19 20 21 22 23 24 25 26 27 28 29 30 31 32 33 34 35 36 37 38 39 40 41 42 43 44 45 46 47 48 49 50

000
ASUS43 KOAX 051110
RWRNE

WEATHER ROUNDUP FOR NEBRASKA
NATIONAL WEATHER SERVICE OMAHA NE
600 AM CDT THU MAY 05 2016

NOTES: SATELLITE DATA IS BEING USED TO AUGMENT CLOUD COVER ABOVE
       12000 FEET.
       "FAIR" INDICATES FEW OR NO CLOUDS BELOW 12,000 FEET WITH NO
       SIGNIFICANT WEATHER AND/OR OBSTRUCTIONS TO VISIBILITY.

  * THESE STATIONS DO NOT REPORT WEATHER SUCH AS RAIN...SNOW OR FOG.

NEZ001>004-019>022-054>056-051200-
NEBRASKA PANHANDLE

CITY           SKY/WX    TMP DP  RH WIND       PRES   REMARKS
SCOTTSBLUFF    CLEAR     49  39  68 E10       30.06S
ALLIANCE       CLEAR     42  40  92 SE7       30.06S
CHADRON        CLEAR     50  40  68 CALM      30.00S
KIMBALL        CLEAR     42  38  87 SW7       30.11S
SIDNEY         CLEAR     45  39  79 SW9       30.08F
$$

NEZ057>060-069>072-079>082-051200-
SOUTHWEST NEBRASKA

CITY           SKY/WX    TMP DP  RH WIND       PRES   REMARKS
NORTH PLATTE   CLEAR     39  36  89 SE5       30.08F
IMPERIAL       CLEAR     46  41  82 CALM      30.09S
LEXINGTON      CLEAR     41  37  88 CALM      30.10S
MCCOOK         CLEAR     42  38  85 CALM      30.10R
OGALLALA       CLEAR     44  38  80 CALM      30.08S
$$

NEZ005>010-023>029-035>040-094-051200-
NORTH CENTRAL NEBRASKA

CITY           SKY/WX    TMP DP  RH WIND       PRES   REMARKS
VALENTINE      CLEAR     45  37  73 CALM      30.05S
AINSWORTH      CLEAR     43  37  79 S7        30.07S
BROKEN BOW     CLEAR     38  35  89 CALM      30.08S
O`NEILL        CLEAR     47  39  72 SW5       30.07S
ORD            PTCLDY    36  34  92 CALM      30.08R
THEDFORD       CLEAR     42  38  86 CALM      30.08S
$$

NEZ041-046>049-061>064-073>077-083>087-051200-
SOUTH CENTRAL NEBRASKA

CITY           SKY/WX    TMP DP  RH WIND       PRES   REMARKS
GRAND ISLAND   PTCLDY    41  37  86 W8        30.09R
AURORA         PTCLDY    41  35  79 W6        30.08R
HASTINGS       PTCLDY    44  35  70 W6        30.09R
HEBRON           N/A     40  37  86 CALM      30.08R
HOLDREGE       CLEAR     44  37  77 CALM      30.09S
KEARNEY *      PTCLDY    43  36  75 NW3       30.10S
YORK           CLEAR     41  37  87 W6        30.08R
$$

NEZ011>018-030>034-042>045-051200-
NORTHEAST NEBRASKA

CITY           SKY/WX    TMP DP  RH WIND       PRES   REMARKS
NORFOLK        CLEAR     42  35  76 CALM      30.06R
ALBION         CLEAR     37  34  88 CALM      30.08R
BLAIR          CLEAR     52  37  57 N7        30.04R
COLUMBUS *     CLEAR     39  30  70 CALM      30.07R
FREMONT        CLEAR     41  39  93 W6        30.05R
TEKAMAH        CLEAR     41  38  89 W5        30.05R
WAYNE          CLEAR     36  34  92 CALM      30.07R
$$

NEZ050>053-065>068-078-088>093-051200-
SOUTHEAST NEBRASKA

CITY           SKY/WX    TMP DP  RH WIND       PRES   REMARKS
LINCOLN        CLEAR     40  36  86 N5        30.07R
OMAHA EPPLEY   PTCLDY    44  40  85 CALM      30.05R
BEATRICE       CLEAR     41  37  87 CALM      30.06R
FALLS CITY     CLEAR     42  38  85 NW3       30.03R
NEBRASKA CITY  CLEAR     48  36  61 N5        30.04R
PLATTSMOUTH    CLEAR     48  40  73 NW5       30.05R
$$

NEZ044-045-051>053-067-051200-
OMAHA AREA

CITY           SKY/WX    TMP DP  RH WIND       PRES   REMARKS
OMAHA EPPLEY   PTCLDY    44  40  85 CALM      30.05R
BLAIR          CLEAR     52  37  57 N7        30.04R
FREMONT        CLEAR     41  39  93 W6        30.05R
MILLARD        CLEAR     44  41  89 CALM      30.05R
OFFUTT AFB     CLEAR     42  41  96 CALM      30.04R
PLATTSMOUTH    CLEAR     48  40  73 NW5       30.05R
WAHOO          FAIR      46  37  71 CALM      30.06R
$$




USA.gov is the U.S. government's official web portal to all federal, state and local government web resources and services.